STARLINK-5263, 54193

Orbit data source: Space-Track

STARLINK-5263, 54193 is a payload satellite owned by SpaceX/Seattle (US) in LEO that was launched on Fri, 28 Oct 2022 UTC via an FALCON 9 launch vehicle from the Air Force Western Test Range (AFWTR). Payload-class satellites include a variety of spacecraft equipped with specific instruments for various scientific and technological missions. These include communications satellites like Starlink; space stations such as the ISS; scientific satellites like the Hubble; Earth observation satellites from companies like Planet Labs, Umbra, and HawkEye 360; GPS; miniature CubeSats for education and research; and military/defense satellites.

Loading next visibility...
Identifier
54193, 2022-141AN
Orbit
LEO
Country
Flag of USUS
Related business
Manufacturer
SpaceX/Seattle
Mission
Operational Commercial Communications
Bus & Motor
STARLINK, Unknown motor
Mass
305 kg wet, ~290 kg dry
Launch date (UTC)
2022-10-28 (4 years ago)
Launch vehicle
FALCON 9
Launch site
Air Force Western Test Range (AFWTR)
Object type
Payload
Rocket body
Debris
Shape & HBR
Box + 1 Pan, 10.1 m
Radar Cross Section
13.562 m², Large (>1 m²)

Expand to show TLE details & history
Last TLE update: 2 days ago

TLE from 2 days ago
0 STARLINK-5263
1 54193U 22141AN  26171.40382323  .00000452  00000-0  46489-4 0  9990
2 54193  53.1608 252.9449 0001236  95.0479 265.0653 15.08833207201500
Epoch: 2026-06-20T09:41Z
TLE epoch observation values (Epoch: 2026-06-20T09:41:30.327Z)
Latitude
-0.00004°
Longitude
-161.05043°
Altitude
540.729 km
Speed
7.593 km/s
True Right ascension
16h 51m 46s
True Declination
0° 00' 00"
Sunlit
Object was in full shadow at epoch
Visualization orbit readout
Latitude
Unknown
Longitude
Unknown
Altitude
Unknown
Speed
Unknown
Apparent Right ascension
Unknown
Apparent Declination
Unknown
Sunlit
N/A
Visualization observer readout
Local Sidereal Time
21:51:59
Azimuth
Unknown
Elevation
Unknown
Doppler factor
Unknown
Orbital elements
Apogee altitude
540.873 km
Perigee altitude
539.163 km
Semi-major axis
6,918.155 km
Eccentricity
0.00012
Inclination
53.1608°
RAAN
252.9449°
Arg. of periapsis
95.0479°
True anomaly
265.05119°
Mean anomaly
265.0653°
Eccentric anomaly
265.05824°
Mean motion
3.77188 °/min
Orbital period
95.44 mins
BSTAR
0.000046489
Loading maneuver chart data...
Computing Atmospheric mass density...

Documentation

Showing up to 5 results
|